Voltar ao catálogo

STARLINK-5332

AtivoComunicaçõesVLEO
NORAD 55285·PAYLOAD·🇺🇸 United States

Lançado Jan 19, 2023 de Vandenberg Space Force Base

Loading…

Próximas Passagens (próximas 24 horas)

TLE

AtualizadoSource: CelesTrak SupGP

Época: Sep 14, 2026, 22:06 UTC

1 55285C 23010S   26257.92131944  .00037736  00000+0  31616-2 0  2577
2 55285  70.0004 247.2536 0003240 266.9970 285.8631 14.98320605    17

Acompanhe STARLINK-5332 em tempo real com AllMySat

Download on the App Store